Flag for Canada Weather past 2 weeks in Strathcona County, Alberta, Canada

Now
80 °F

Pleasantly warm.


Feels Like: 79 °F
Forecast: 56 / 75 °F
Wind: 7 mph from North

Location: Edmonton Municipal

Current Time: Jul 31, 2015 at 8:22:36 PM

Latest Report: Jul 31, 2015 at 8:00 PM


Visibility: N/A

Pressure: 29.93 "Hg (27.55 "Hg at 728m altitude)

Humidity: 32%

Dew point: 47 °F

Location of Strathcona CountyLocation

Historic Weather in Strathcona County — Graph

°F

Strathcona County temperature yesterday

Maximum temperature yesterday: 77 °F (at 5:00 PM)
Minimum temperature yesterday: 58 °F (at 3:00 AM)
Average temperature yesterday: 67 °F

Past Weeks' High & Low Weather Summary

 TemperatureHumidityPressure
High84 °F (Jul 31, 6:00 PM)96% (Jul 17, 5:00 AM)30.19 "Hg (Jul 17, 5:00 AM)
Low49 °F (Jul 23, 4:00 AM)26% (Jul 30, 5:00 PM)29.67 "Hg (Jul 20, 10:00 PM)
Average65 °F59%29.88 "Hg
* Reported Jul 16 7:00 PM — Jul 31 7:00 PM, Strathcona County, Weather by CustomWeather, © 2015

Note: Actual official high and low records may vary slightly from our data, if they occured in-between our weather recording intervals... More about our weather records

Advertising

Strathcona County weather history for previous 24 hours

 ConditionsComfort  
Time TempWeatherWind HumidityBarometerVisibility
7:00 PM
Fri, Jul 31
82 °FPleasantly warm.7 mph26%29.93 "HgN/A
6:00 PM84 °FPleasantly warm.5 mph26%29.93 "HgN/A
5:00 PM84 °FPleasantly warm.8 mph29%29.95 "HgN/A
4:00 PM80 °FPleasantly warm.7 mph35%29.96 "HgN/A
3:00 PM80 °FPleasantly warm.9 mph34%29.97 "HgN/A
2:00 PM80 °FPleasantly warm.10 mph33%29.99 "HgN/A
1:00 PM79 °FPleasantly warm.14 mph34%30.01 "HgN/A
12:00 PM78 °FPleasantly warm.15 mph35%30.03 "HgN/A
11:00 AM75 °FMild.15 mph32%30.05 "HgN/A
10:00 AM72 °FMild.10 mph43%30.07 "HgN/A
9:00 AM67 °FMild.9 mph52%30.09 "HgN/A
8:00 AM64 °FMild.7 mph60%30.11 "HgN/A
7:00 AM62 °FCool.7 mph64%30.11 "HgN/A
6:00 AM58 °FCool.3 mph69%30.13 "HgN/A
5:00 AM59 °FCool.2 mph68%30.13 "HgN/A
4:00 AM61 °FCool.5 mph63%30.14 "HgN/A
3:00 AM63 °FMild.5 mph59%30.14 "HgN/A
2:00 AM62 °FCool.3 mph62%30.13 "HgN/A
1:00 AM64 °FMild.3 mph55%30.14 "HgN/A
12:00 AM65 °FMild.3 mph49%30.13 "HgN/A
11:00 PM
Thu, Jul 30
66 °FMild.No wind42%30.13 "HgN/A
10:00 PM69 °FMild.1 mph35%30.11 "HgN/A
9:00 PM73 °FMild.2 mph28%30.11 "HgN/A
8:00 PM75 °FMild.6 mph27%30.11 "HgN/A
Weather by CustomWeather, © 2015

See weather overviewHow to use our weather pages